Погода в Прыганке

Россия / Алтайский край     53°57′48″N   80°48′24″E
темп.,
°C
ветер,
м/с
пор.,
м/с
влажн.,
%
обл.,
%
осадки,
мм/ч
давл.,
гПа
погр.,
м
4 марта, чт
чт401:00−14ююз6149294 0.1 1022385
04:00−12ююз71489100 0.0 1021477
07:00−11ююз71490100 0.0 1021460
10:00−10ююз71491100 0.0 1019484
13:00−8ююз71392100 0.1 1019527
16:00−5ююз81590100 0.1 1017665
19:00−4ююз81688100 0.1 1016689
22:00−6ююз81789100 0.0 1015591
5 марта, пт
пт501:00−6ююз71687100 0.0 1014551
04:00−7ююз71587100 0.0 1012493
07:00−8ююз71591100 0.0 1011518
10:00−6ююз81592100 0.1 1010682
13:00−2зюз91482100 0.6 10131261
16:00−4зюз8138390 0.0 1016865
19:00−6юз8168595 0.0 1018761
22:00−6юз91792100 0.3 10181006
6 марта, сб
сб601:00−5юз91594100 1.1 1018924
04:00−5юз91693100 0.9 1018791
07:00−6юз91691100 1.2 1018698
10:00−7юз91689100 0.1 1017764
13:00−6юз91689100 0.2 1016793
16:00−4юз91590100 0.1 1014903
19:00−4юз81591100 0.4 1014935
22:00−3юз81592100 0.3 1013828
7 марта, вс
вс701:00−3юз71493100 0.6 1014698
04:00−3юз61294100 0.3 1014595
07:00−4юз51094100 0.4 1016395
10:00−3ююз5895100 0.1 1016357
13:00−3ю61094100 0.5 1016531
16:00−3ююз7139299 0.2 1014624
19:00−3ююз71489100 0.2 1013624
22:00−3ююз71490100 0.0 1013566
8 марта, пн
пн801:00−4ююз71589100 0.0 1013479
04:00−4юз61489100 0.0 1012417
07:00−5юз61391100 0.0 1012391
10:00−4юз61094100 0.1 1013406
13:00−3юз5996100 0.6 1014454
16:00−2юз4696100 1.2 1015454
19:00−2ююз3697100 1.9 1015288
22:00−3ююз2598100 1.2 1016254